Location: Melbourne
(37.8170°S, 144.9670°E)
Time: 13:40:40
(UTC+10:00)

Explorer 11/Cluster Stage 4 - Visible Passes

Search period start: 02 May 2016 00:00
Search period end: 12 May 2016 00:00
Orbit: 467 x 1266 km, 28.8° (Epoch: 01 May)

Date Brightness Start Highest point End Pass type
(mag) Time Alt. Az. Time Alt. Az. Time Alt. Az.
02 May 8.6 04:21:21 24° N 04:22:15 25° NNE 04:27:22 10° ENE visible
02 May 8.1 06:04:37 10° WNW 06:10:45 34° N 06:15:48 10° ENE visible
03 May 8.5 04:12:32 28° NNE 04:12:34 28° NNE 04:18:07 10° ENE visible
03 May 8.0 05:54:45 10° WNW 06:01:08 36° N 06:06:27 10° ENE visible
04 May 8.5 04:03:38 30° NNE 04:03:38 30° NNE 04:08:46 10° ENE visible
04 May 8.0 05:45:51 14° WNW 05:51:30 38° N 05:57:03 10° ENE visible
05 May 8.5 03:54:42 31° NE 03:54:42 31° NE 03:59:23 10° ENE visible
05 May 8.0 05:36:55 18° WNW 05:41:50 39° N 05:47:37 10° ENE visible
06 May 8.6 03:45:43 30° NE 03:45:43 30° NE 03:49:56 10° ENE visible
06 May 8.0 05:27:56 22° WNW 05:32:09 40° N 05:38:08 10° ENE visible
07 May 8.8 03:36:42 28° NE 03:36:42 28° NE 03:40:26 10° ENE visible
07 May 8.0 05:18:55 26° NW 05:22:26 40° N 05:28:37 10° ENE visible
08 May 9.0 03:27:41 26° ENE 03:27:41 26° ENE 03:30:54 10° ENE visible
08 May 8.0 05:09:53 30° NW 05:12:42 40° N 05:19:04 10° ENE visible
09 May 9.2 03:18:38 23° ENE 03:18:38 23° ENE 03:21:18 10° ENE visible
09 May 8.1 05:00:51 33° NW 05:02:56 39° N 05:09:28 10° NE visible
10 May 9.4 03:09:37 19° ENE 03:09:37 19° ENE 03:11:40 10° ENE visible
10 May 8.1 04:51:49 36° NW 04:53:09 38° NNW 04:59:48 10° NE visible
10 May 8.8 06:36:13 10° WNW 06:41:28 20° NNW 06:46:11 10° NNE visible
11 May 9.6 03:00:35 16° ENE 03:00:35 16° ENE 03:02:00 10° ENE visible
11 May 8.2 04:42:48 36° NNW 04:43:21 37° NNW 04:50:06 10° NE visible
11 May 8.9 06:26:41 10° WNW 06:31:40 18° NNW 06:36:12 10° NNE visible
